[1] hot.png 2020-08-15 03:11:44 14.51 KB
[2] pos-T160.rar 2020-08-15 03:11:44 3.52 MB
[3] test.PNG 2020-08-15 03:11:44 71.81 KB
[4] winrar-x64-550scp.exe 2020-08-15 03:11:44 2.24 MB
[5] 1005.exe 2020-08-15 03:11:43 3.48 MB
[6] 20090210 中讯科技 商业管理软件扫描输入单据处理步骤.doc 2020-08-15 03:11:43 594.5 KB
[7] APP申请资料清单.xls 2020-08-15 03:11:43 122 KB
[8] Albaran2013-qiang.rar 2020-08-15 03:11:43 5.17 KB
[9] DDNS2016.exe 2020-08-15 03:11:43 233.76 KB
[10] FinalData3.0.zip 2020-08-15 03:11:43 4.98 MB
[11] H50FF0FBE_0623205222.apk 2020-08-15 03:11:43 4.88 MB
[12] dsOrderPublic.msi 2020-08-15 03:11:43 1.73 MB
[13] oki206-406.rar 2020-08-15 03:11:43 806.86 KB
[14] t9-3lines.xlsx 2020-08-15 03:11:43 6.64 KB
[15] usb.rar 2020-08-15 03:11:43 7.43 MB
[16] 商业管理软件出现登录界面按【确定】后不能进入主界面的解决办法.reg 2020-08-15 03:11:43 296 B
[17] 20090210_Finereader.doc 2020-08-15 03:11:42 594.5 KB
[18] 20100817_Client_Pre.doc 2020-08-15 03:11:42 283.5 KB
[19] CAM-ROBOT-20160615_ALL.bin 2020-08-15 03:11:42 6.4 MB
[20] DVR_IE_V2.0.0.21_20110819.exe 2020-08-15 03:11:42 1.8 MB
[21] MS7120-9540.pdf 2020-08-15 03:11:42 2.06 MB
[22] OKI_OPOS_Driver.rar 2020-08-15 03:11:42 7.48 MB
[23] SetupDDNS.exe 2020-08-15 03:11:42 65.66 KB
[24] UPOS_Driver.exe 2020-08-15 03:11:42 11.11 MB
[25] ds_shop_with_log.exe 2020-08-15 03:11:42 689.39 KB
[26] dvr_1400_9000.rar 2020-08-15 03:11:42 33.43 MB
[27] stargo-release.apk 2020-08-15 03:11:42 2.54 MB
[28] 275.exe 2020-08-15 03:11:41 7.54 MB
[29] 350.exe 2020-08-15 03:11:41 5.67 MB
[30] Albaran2013-italia.rar 2020-08-15 03:11:41 5.35 KB
[31] RestauranteC.msi 2020-08-15 03:11:41 4.76 MB
[32] bixolon_srp-350plusiii_windows_driver_v1.2.8.zip 2020-08-15 03:11:41 17.38 MB
[33] dsOrder.msi 2020-08-15 03:11:41 1.74 MB
[34] google-play-services.apk 2020-08-15 03:11:41 50.36 MB
[35] 20130509 SQL 2005日志文件损坏修复.txt 2020-08-15 03:11:40 1.47 KB
[36] GS-LED8N.rar 2020-08-15 03:11:40 667.82 KB
[37] GhoExp.exe 2020-08-15 03:11:40 1002.83 KB
[38] Google_Play_Store_v4_4_22.apk 2020-08-15 03:11:40 5.84 MB
[39] PL2303_Prolific_v1.7.0.rar 2020-08-15 03:11:40 2.08 MB
[40] SRP-350_V3.1.9Ea_x64.exe 2020-08-15 03:11:40 3.28 MB
[41] SamsungLaserUniversal.exe 2020-08-15 03:11:40 20.2 MB
[42] es.densen.core.apk 2020-08-15 03:11:40 50.64 MB
[43] importTemplate.xlsx 2020-08-15 03:11:40 16.73 KB
[44] 光影魔术手缩小图片步骤.docx 2020-08-15 03:11:40 903.35 KB
[45] 20091002 多点远程支持说明.doc 2020-08-15 03:11:39 22.5 KB
[46] 20101122 百汇数据导入方法.txt 2020-08-15 03:11:39 207 B
[47] 3389-6688-2.reg 2020-08-15 03:11:39 570 B
[48] A10.exe 2020-08-15 03:11:39 2.13 MB
[49] ChromeSetup.exe 2020-08-15 03:11:39 860.14 KB
[50] DemoTPVv.apk 2020-08-15 03:11:39 1.56 MB
[51] NetFxRepairTool.exe 2020-08-15 03:11:39 858.49 KB
[52] WizTree.exe 2020-08-15 03:11:39 1.64 MB
[53] ad 2020-08-15 03:11:39 4 KB
[54] excel2017drv.exe 2020-08-15 03:11:39 25.41 MB
[55] jiang xiao Order.rar 2020-08-15 03:11:39 256.39 KB
[56] mini_tools.rar 2020-08-15 03:11:39 15.74 MB
[57] test2.PNG 2020-08-15 03:11:39 72.2 KB
[58] 云打印机.exe 2020-08-15 03:11:39 859.58 KB
[59] 哦.csv 2020-08-15 03:11:39 33.59 KB
[60] 批量改包和箱单位关系.doc 2020-08-15 03:11:39 162.5 KB
[61] 检查结帐后编辑再删除的单据.doc 2020-08-15 03:11:39 28.5 KB
[62] 20140319 SRP-350II USB打印机OPOS驱动设置步骤.doc 2020-08-15 03:11:38 480.5 KB
[63] A10_MiniPrinter_v1.5.2_x64_en.exe 2020-08-15 03:11:38 2.88 MB
[64] AA_v3.exe 2020-08-15 03:11:38 755.49 KB
[65] Brother闪灯故障复位步骤.txt 2020-08-15 03:11:38 142 B
[66] CMS.exe 2020-08-15 03:11:38 8.78 MB
[67] DVR_IE.exe 2020-08-15 03:11:38 1.85 MB
[68] Nota.cmd 2020-08-15 03:11:38 39 B
[69] OPOS_4.2.15.exe 2020-08-15 03:11:38 6.31 MB
[70] SQL express 2014.txt 2020-08-15 03:11:38 746 B
[71] SRP-350_V3.1.9E.exe 2020-08-15 03:11:38 3.17 MB
[72] TeamViewerQS.exe 2020-08-15 03:11:38 5.24 MB
[73] USB_COM_Driver_220ii.rar 2020-08-15 03:11:38 29.58 KB
[74] USB_Driver_posbank_A10.rar 2020-08-15 03:11:38 3.18 MB
[75] cpeg.txt 2020-08-15 03:11:38 232 B
[76] densenVSbohao.reg 2020-08-15 03:11:38 216 B
[77] dsAlmacen.ipa 2020-08-15 03:11:38 1.52 MB
[78] dsOrderTabletPlus.apk 2020-08-15 03:11:38 817.01 KB
[79] dsSync.msi 2020-08-15 03:11:38 1.11 MB
[80] ds_shopAL.rar 2020-08-15 03:11:38 4.31 MB
[81] fw6688.reg 2020-08-15 03:11:38 170.69 KB
[82] teamviewer10.exe 2020-08-15 03:11:38 9.07 MB
[83] vMEyeCloud(v1.4.0).apk 2020-08-15 03:11:38 2.89 MB
[84] winrar32bit.exe 2020-08-15 03:11:38 1.54 MB
[85] 光影魔术手.exe 2020-08-15 03:11:38 15.1 MB
[86] 国华科技-转数据.txt 2020-08-15 03:11:38 225 B
[87] 1018.exe 2020-08-15 03:11:37 3.54 MB
[88] Excel2007_Pack.rar 2020-08-15 03:11:37 180.01 MB
[89] HDD_dvr_h.264_player.rar 2020-08-15 03:11:37 7.36 MB
[90] tienda_Sql.txt 2020-08-15 03:11:37 26 B
[91] 3x9-code128.rdlc 2020-08-15 03:11:34 8.4 KB
[92] Ghostexp.exe 2020-08-15 03:11:34 3.38 MB
[93] Office2003.exe 2020-08-15 03:11:34 83 MB
[94] TD5130路由器配置教程.doc 2020-08-15 03:11:34 505 KB
[95] UPOS4.0.7.exe 2020-08-15 03:11:34 11.11 MB
[96] iCart15.rar 2020-08-15 03:11:34 660.33 KB
[97] 把USB打印机映射到LPT2端口.rar 2020-08-15 03:11:34 4.25 KB
[98] 20090819 盘点机使用说明.doc 2020-08-15 03:11:33 538 KB
[99] 5x13-Texto - shuangzhi.rdlc 2020-08-15 03:11:33 6.77 KB
[100] CMS-20160218.exe 2020-08-15 03:11:33 32 MB
[101] DSP.exe 2020-08-15 03:11:33 27 KB
[102] DSP420.rar 2020-08-15 03:11:33 3.41 MB
[103] GP80_USB_VIRTUAL_COM.rar 2020-08-15 03:11:33 29.43 KB
[104] Ghost2009.exe 2020-08-15 03:11:33 5.23 MB
[105] Win10安装软件提示“你必须取消阻止该发布者才能运行此软件”解决方法.reg 2020-08-15 03:11:33 536 B
[106] bixolon_opos_driver_setup_en_v4.2.14.zip 2020-08-15 03:11:33 4.52 MB
[107] bixolon_vcom_for_usb_v1.0.10.2_v2.0.11.2.zip 2020-08-15 03:11:33 8.28 MB
[108] no_modifica_fecha.txt 2020-08-15 03:11:33 54 B
[109] pciDrv.zip 2020-08-15 03:11:33 503.88 KB
[110] teamviewer3.exe 2020-08-15 03:11:33 1.04 MB
[111] xp.exe 2020-08-15 03:11:33 96.43 KB
[112] 单据处理人员使用说明.doc 2020-08-15 03:11:33 320.5 KB
[113] 去除箱的.txt 2020-08-15 03:11:33 311 B
[114] 数据损坏终极修复语句.sql 2020-08-15 03:11:33 1.98 KB
[115] 用组策略来禁止修改系统时间的方法.doc 2020-08-15 03:11:33 58 KB
[116] 负库存清零语句.txt 2020-08-15 03:11:33 67 B